User: anonymous   Login
Location: Mactaquac Provincial Park
(45.9573°N, 66.8897°W)
Time: 14:23:41
(UTC-03:00)
Language:

Cosmos 1867 - Orbit

View from above orbital plane
View from above orbital plane
View from above satellite
View from above satellite

Ground track
Ground track

The orbit data is extracted from the following two-line orbital elements,

1 18187U 87060A   17296.18521702 -.00000064  00000-0  13511-4 0  9993
2 18187  65.0108 230.5895 0013741 273.2750  86.6762 14.31089519582316
Epoch (UTC): 23 October 2017 04:26:42
Eccentricity: 0.0013741
inclination: 65.0108°
perigee height: 778 km
apogee height: 798 km
right ascension of ascending node: 230.5895°
argument of perigee: 273.2750°
revolutions per day: 14.31089519
mean anomaly at epoch: 86.6762°
orbit number at epoch: 58231

The dashed part of the orbit path shows where the satellite is in the earth's shadow,  

DLR